Flag for Norway Weather past 2 weeks in Harstad, Norway

Now
54 °F

Drizzle. Overcast.


Feels Like: 51 °F
Forecast: 52 / 54 °F
Wind: 8 mph from Southwest

Location: Evenes

Current Time: Sep 2, 2014 at 4:08:49 AM

Latest Report: Sep 2, 2014 at 3:20 AM


Visibility: N/A

Pressure: 29.98 "Hg

Humidity: 94%

Dew point: 52 °F

Location of HarstadLocation

Historic Weather in Harstad — Graph

°F

Harstad temperature yesterday

Maximum temperature yesterday: 64 °F (at 12:50 PM)
Minimum temperature yesterday: 41 °F (at 2:50 AM)
Average temperature yesterday: 51 °F

Past Weeks' High & Low Weather Summary

 TemperatureHumidityPressure
High66 °F (Aug 31, 2:50 PM)100% (Aug 21, 3:50 AM)30.15 "Hg (Aug 21, 3:50 AM)
Low41 °F (Aug 18, 4:20 AM)43% (Aug 31, 4:50 PM)29.45 "Hg (Aug 19, 3:20 AM)
Average52 °F81%29.83 "Hg
* Reported Aug 18 2:20 AM — Sep 2 2:50 AM, Harstad, Weather by CustomWeather, © 2014

Note: Actual official high and low records may vary slightly from our data, if they occured in-between our weather recording intervals... More about our weather records

Advertising

Harstad weather history for previous 24 hours

 ConditionsComfort  
Time TempWeatherWind HumidityBarometerVisibility
2:50 AM
Sep 2
54 °FOvercast.9 mph94%29.98 "HgN/A
2:20 AM54 °FMostly cloudy.7 mph94%29.98 "HgN/A
1:50 AM54 °FMostly cloudy.7 mph94%29.98 "HgN/A
1:20 AM54 °FClear.6 mph94%29.98 "Hg10 mi
12:50 AM54 °FClear.5 mph94%30.01 "Hg10 mi
11:50 PM
Sep 1
54 °FPassing clouds.6 mph94%30.01 "HgN/A
10:50 PM55 °FPassing clouds.3 mph88%30.01 "HgN/A
9:50 PM55 °FPassing clouds.3 mph88%30.04 "HgN/A
8:50 PM55 °FBroken clouds.5 mph88%30.04 "HgN/A
8:20 PM55 °FBroken clouds.6 mph88%30.04 "HgN/A
8:03 PM55 °FScattered showers. Broken clouds.7 mph88%30.04 "HgN/A
6:50 PM57 °FSprinkles. Partly sunny.7 mph82%30.04 "HgN/A
5:50 PM59 °FBroken clouds.8 mph77%30.04 "HgN/A
4:50 PM59 °FBroken clouds.13 mph72%30.04 "HgN/A
3:50 PM59 °FPartly sunny.14 mph72%30.04 "HgN/A
3:20 PM61 °FPartly sunny.14 mph68%30.04 "HgN/A
1:57 PM63 °FPartly sunny.12 mph59%30.04 "HgN/A
12:50 PM64 °FScattered clouds.12 mph56%30.04 "HgN/A
11:50 AM63 °FPassing clouds.7 mph52%30.04 "HgN/A
10:50 AM61 °FSunny.3 mph68%30.04 "Hg10 mi
9:50 AM55 °FSunny.5 mph82%30.04 "Hg10 mi
8:50 AM52 °FSunny.8 mph94%30.04 "Hg10 mi
7:50 AM48 °FFog.3 mph94%30.04 "HgN/A
6:50 AM43 °FLight fog.1 mph100%30.04 "HgN/A
6:20 AM41 °FSunny.No wind100%30.04 "HgN/A
5:50 AM41 °FClear.No wind100%30.04 "HgN/A
5:20 AM41 °FFog.1 mph100%30.04 "Hg0 mi
4:50 AM41 °FFog.1 mph100%30.04 "Hg0 mi
4:20 AM41 °FFog.1 mph100%30.04 "Hg0 mi
Weather by CustomWeather, © 2014

See weather overviewHow to use our weather pages